Location: Barcelona
(41.3830°N, 2.1830°E)
Time: 13:56:21
(UTC+01:00)

ISS - Pass Details

Date: 14 December 2017
Orbit: 402 x 406 km, 51.6° (Epoch: 16 December)

Event Time Altitude Azimuth Distance (km) Brightness Sun altitude
Rises 18:45:33 0° 305° (NW) 2,330 0.6 -15.0°
Reaches altitude 10° 18:47:39 10° 306° (NW) 1,466 -0.5 -15.4°
Maximum altitude 18:50:56 84° 35° (NE) 411 -4.0 -16.0°
Enters shadow 18:52:25 30° 122° (ESE) 758 -2.8 -16.3°
